• In Uzbekistan
  • List of Countries
  • For 7 days
  • Water Temperature
  • Satellite Maps
  • Weather Map
  • Weather Widgets
  • user-avatar
    Login

    Hourly Weather Mohale's Hoek

    Today, 22 June, Friday

    Time Temperature Precipitation Wind Pressure Humidity
    00:00 +8°C° 0 mm 1 mps 634 mmHg 43%
    01:00 +8°C° 0 mm 1 mps 634 mmHg 44%
    02:00 +7°C° 0 mm 1 mps 634 mmHg 46%
    03:00 +7°C° 0 mm 1 mps 634 mmHg 49%
    04:00 +7°C° 0 mm 1 mps 634 mmHg 51%
    05:00 +6°C° 0 mm 1 mps 634 mmHg 54%
    06:00 +7°C° 0 mm 1 mps 634 mmHg 51%
    07:00 +7°C° 0 mm 1 mps 635 mmHg 49%
    08:00 +10°C° 0 mm 1 mps 636 mmHg 45%
    09:00 +12°C° 0 mm 1 mps 637 mmHg 37%
    10:00 +14°C° 0 mm 1 mps 637 mmHg 30%
    11:00 +16°C° 0 mm 1 mps 638 mmHg 23%
    12:00 +16°C° 0 mm 1 mps 637 mmHg 21%
    13:00 +17°C° 0 mm 2 mps 637 mmHg 19%
    14:00 +18°C° 0 mm 2 mps 637 mmHg 17%
    15:00 +16°C° 0 mm 1 mps 636 mmHg 21%
    16:00 +15°C° 0 mm 1 mps 636 mmHg 25%
    17:00 +13°C° 0 mm 1 mps 635 mmHg 29%
    18:00 +12°C° 0 mm 1 mps 635 mmHg 30%
    19:00 +10°C° 0 mm 1 mps 634 mmHg 32%
    20:00 +8°C° 0 mm 0 mps 634 mmHg 33%
    21:00 +8°C° 0 mm 1 mps 634 mmHg 33%
    22:00 +8°C° 0 mm 1 mps 634 mmHg 33%
    23:00 +8°C° 0 mm 1 mps 634 mmHg 33%

    Tomorrow, 23 June, Saturday

    Time Temperature Precipitation Wind Pressure Humidity
    00:00 +7°C° 0 mm 1 mps 634 mmHg 34%
    01:00 +7°C° 0 mm 1 mps 634 mmHg 34%
    02:00 +6°C° 0 mm 2 mps 634 mmHg 34%
    03:00 +6°C° 0 mm 2 mps 633 mmHg 34%
    04:00 +6°C° 0 mm 2 mps 633 mmHg 35%
    05:00 +6°C° 0 mm 2 mps 633 mmHg 35%
    06:00 +6°C° 0 mm 2 mps 633 mmHg 35%
    07:00 +7°C° 0 mm 2 mps 633 mmHg 34%
    08:00 +8°C° 0 mm 2 mps 634 mmHg 33%
    09:00 +10°C° 0 mm 3 mps 634 mmHg 30%
    10:00 +13°C° 0 mm 4 mps 635 mmHg 27%
    11:00 +16°C° 0 mm 5 mps 636 mmHg 24%
    12:00 +16°C° 0 mm 6 mps 635 mmHg 23%
    13:00 +17°C° 0 mm 7 mps 635 mmHg 22%
    14:00 +18°C° 0 mm 8 mps 634 mmHg 22%
    15:00 +16°C° 0 mm 7 mps 634 mmHg 24%
    16:00 +15°C° 0 mm 5 mps 634 mmHg 27%
    17:00 +14°C° 0 mm 4 mps 633 mmHg 30%
    18:00 +13°C° 0 mm 3 mps 633 mmHg 33%
    19:00 +11°C° 0 mm 3 mps 633 mmHg 36%
    20:00 +10°C° 0 mm 2 mps 632 mmHg 40%
    21:00 +9°C° 0 mm 2 mps 632 mmHg 41%
    22:00 +9°C° 0 mm 2 mps 632 mmHg 42%
    23:00 +8°C° 0 mm 2 mps 632 mmHg 43%

    Day after tomorrow, 24 June, Sunday

    Time Temperature Precipitation Wind Pressure Humidity
    00:00 +8°C° 0 mm 2 mps 632 mmHg 44%
    01:00 +7°C° 0 mm 2 mps 632 mmHg 46%
    02:00 +8°C° 0 mm 1 mps 632 mmHg 47%
    03:00 +7°C° 0 mm 1 mps 631 mmHg 49%
    04:00 +7°C° 0 mm 1 mps 631 mmHg 50%
    05:00 +6°C° 0 mm 1 mps 631 mmHg 52%
    06:00 +7°C° 0 mm 1 mps 632 mmHg 49%
    07:00 +8°C° 0 mm 1 mps 632 mmHg 47%
    08:00 +8°C° 0 mm 1 mps 633 mmHg 45%
    09:00 +10°C° 0 mm 2 mps 634 mmHg 38%
    10:00 +13°C° 0 mm 2 mps 635 mmHg 31%
    11:00 +16°C° 0 mm 3 mps 636 mmHg 24%
    12:00 +17°C° 0 mm 3 mps 636 mmHg 22%
    13:00 +17°C° 0 mm 3 mps 635 mmHg 20%
    14:00 +18°C° 0 mm 4 mps 635 mmHg 17%
    15:00 +17°C° 0 mm 3 mps 634 mmHg 20%
    16:00 +14°C° 0 mm 3 mps 634 mmHg 23%
    17:00 +14°C° 0 mm 2 mps 633 mmHg 26%
    18:00 +13°C° 0 mm 2 mps 633 mmHg 30%
    19:00 +10°C° 0 mm 2 mps 633 mmHg 33%
    20:00 +9°C° 0 mm 2 mps 633 mmHg 36%
    21:00 +9°C° 0 mm 2 mps 633 mmHg 37%
    22:00 +8°C° 0 mm 2 mps 633 mmHg 39%
    23:00 +8°C° 0 mm 2 mps 633 mmHg 40%

    25 June, Monday

    Time Temperature Precipitation Wind Pressure Humidity
    00:00 +7°C° 0 mm 2 mps 633 mmHg 42%
    01:00 +7°C° 0 mm 2 mps 633 mmHg 43%
    02:00 +7°C° 0 mm 2 mps 633 mmHg 44%
    03:00 +6°C° 0 mm 2 mps 632 mmHg 45%
    04:00 +6°C° 0 mm 2 mps 632 mmHg 46%
    05:00 +6°C° 0 mm 2 mps 632 mmHg 47%
    06:00 +6°C° 0 mm 2 mps 633 mmHg 46%
    07:00 +7°C° 0 mm 2 mps 633 mmHg 44%
    08:00 +8°C° 0 mm 2 mps 634 mmHg 43%
    09:00 +10°C° 0 mm 2 mps 635 mmHg 37%
    10:00 +14°C° 0 mm 2 mps 636 mmHg 31%
    11:00 +16°C° 0 mm 2 mps 636 mmHg 25%
    12:00 +17°C° 0 mm 2 mps 636 mmHg 23%
    13:00 +18°C° 0 mm 3 mps 636 mmHg 22%
    14:00 +18°C° 0 mm 3 mps 635 mmHg 20%
    15:00 +17°C° 0 mm 2 mps 635 mmHg 24%
    16:00 +15°C° 0 mm 1 mps 634 mmHg 28%
    17:00 +14°C° 0 mm 1 mps 634 mmHg 32%
    18:00 +12°C° 0 mm 1 mps 634 mmHg 34%
    19:00 +11°C° 0 mm 1 mps 634 mmHg 35%
    20:00 +9°C° 0 mm 0 mps 634 mmHg 36%
    21:00 +9°C° 0 mm 1 mps 633 mmHg 37%
    22:00 +9°C° 0 mm 1 mps 633 mmHg 38%
    23:00 +8°C° 0 mm 1 mps 633 mmHg 38%

    26 June, Tuesday

    Time Temperature Precipitation Wind Pressure Humidity
    00:00 +8°C° 0 mm 1 mps 633 mmHg 39%
    01:00 +8°C° 0 mm 1 mps 633 mmHg 39%
    02:00 +7°C° 0 mm 1 mps 633 mmHg 40%
    03:00 +7°C° 0 mm 1 mps 633 mmHg 40%
    04:00 +7°C° 0 mm 1 mps 633 mmHg 41%
    05:00 +7°C° 0 mm 1 mps 633 mmHg 42%
    06:00 +7°C° 0 mm 1 mps 633 mmHg 41%
    07:00 +8°C° 0 mm 1 mps 634 mmHg 40%
    08:00 +9°C° 0 mm 1 mps 634 mmHg 39%
    09:00 +10°C° 0 mm 2 mps 635 mmHg 33%
    10:00 +13°C° 0 mm 3 mps 635 mmHg 27%
    11:00 +17°C° 0 mm 3 mps 636 mmHg 21%
    12:00 +17°C° 0 mm 4 mps 636 mmHg 21%
    13:00 +18°C° 0 mm 4 mps 635 mmHg 21%
    14:00 +17°C° 0 mm 5 mps 635 mmHg 20%
    15:00 +17°C° 0 mm 4 mps 634 mmHg 24%
    16:00 +16°C° 0 mm 3 mps 634 mmHg 27%
    17:00 +14°C° 0 mm 3 mps 634 mmHg 31%
    18:00 +14°C° 0 mm 2 mps 634 mmHg 34%
    19:00 +13°C° 0 mm 2 mps 634 mmHg 37%
    20:00 +10°C° 0 mm 2 mps 633 mmHg 41%
    21:00 +10°C° 0 mm 2 mps 633 mmHg 43%
    22:00 +11°C° 0 mm 1 mps 633 mmHg 45%
    23:00 +10°C° 0 mm 1 mps 633 mmHg 48%

    27 June, Wednesday

    Time Temperature Precipitation Wind Pressure Humidity
    00:00 +10°C° 0 mm 1 mps 633 mmHg 48%
    01:00 +9°C° 0 mm 2 mps 633 mmHg 49%
    02:00 +9°C° 0 mm 2 mps 633 mmHg 50%
    03:00 +9°C° 0 mm 2 mps 632 mmHg 51%
    04:00 +8°C° 0 mm 2 mps 632 mmHg 51%
    05:00 +8°C° 0 mm 2 mps 632 mmHg 52%
    06:00 +8°C° 0 mm 2 mps 632 mmHg 51%
    07:00 +9°C° 0 mm 2 mps 633 mmHg 51%
    08:00 +9°C° 0 mm 2 mps 633 mmHg 51%
    09:00 +11°C° 0 mm 4 mps 634 mmHg 45%
    10:00 +13°C° 0 mm 5 mps 634 mmHg 40%
    11:00 +15°C° 0 mm 6 mps 635 mmHg 35%
    12:00 +15°C° 0 mm 6 mps 635 mmHg 33%
    13:00 +16°C° 0 mm 6 mps 634 mmHg 31%
    14:00 +16°C° 0 mm 6 mps 634 mmHg 29%
    15:00 +15°C° 0 mm 5 mps 634 mmHg 30%
    16:00 +14°C° 0 mm 3 mps 633 mmHg 32%
    17:00 +14°C° 0 mm 2 mps 633 mmHg 33%
    18:00 +13°C° 0 mm 2 mps 633 mmHg 37%
    19:00 +11°C° 0 mm 1 mps 633 mmHg 40%
    20:00 +9°C° 0 mm 1 mps 632 mmHg 43%
    21:00 +8°C° 0 mm 0 mps 632 mmHg 45%
    22:00 +7°C° 0 mm 0 mps 632 mmHg 47%
    23:00 +6°C° 0 mm 0 mps 632 mmHg 49%
    Show more